Regional Weather Roundup
Issued by NWS Sterling, VA

Home | Current Version | Previous Version | Text Only | Print | Product List | Glossary Off
Versions: 1 2 3 4 5 6 7 8 9 10 11 12 13 14 15 16 17 18 19 20 21 22 23 24 25 26 27 28 29 30 31 32 33 34 35 36 37 38 39 40 41 42 43 44 45 46 47 48 49 50

000
ASUS41 KLWX 280710
RWRLWX

REGIONAL WEATHER ROUNDUP
NATIONAL WEATHER SERVICE BALTIMORE MD/WASHINGTON DC
200 AM EST WED JAN 28 2015

Note: "FAIR" indicates few or no clouds below 12,000 feet
with no significant weather and/or obstructions to visibility.
 TC=TEMPERATURE CELSIUS

 * =Non NWS site. Station does not report precipitation (e.g. rain,
    snow, etc.), thunder, or fog.

DCZ001-MDZ009-015-VAZ040>042-051-053>054-280800-
WASHINGTON METRO

CITY           SKY/WX    TMP DP  RH WIND       PRES   REMARKS
WASHINGTON NAT MOCLDY    28  12  51 NW17G26   30.04R WCI  16
DULLES         CLEAR     24  12  60 NW18G31   30.04R WCI  10
ANDREWS AFB    CLEAR     25  13  60 NW16G22   30.01R WCI  13
FT BELVOIR     CLEAR     27  12  54 NW15G23   30.04R WCI  15
QUANTICO       CLEAR     28  12  51 N16G30    30.06R WCI  16
COLLEGE PARK*  CLEAR     28  14  54 NW8       30.03R WCI  20
LEESBURG*      CLEAR     27  18  69 NW21G26   30.05R WCI  13
MANASSAS*      CLEAR     25  16  68 N18G24    30.05R WCI  11
GAITHERSBURG*  PTCLDY    21   9  58 NW12G20   30.04R WCI   9

$$

MDZ006>007-011-014-280800-
BALTIMORE METRO

CITY           SKY/WX    TMP DP  RH WIND       PRES   REMARKS
BWI AIRPORT    PTCLDY    25   8  48 NW10G20   30.01R WCI  15
MD SCIENCE CTR   N/A     26   6  42 MISG      30.01F
MARTIN STATE   CLEAR     25  10  54 W17G23    30.02R WCI  11
ANNAPOLIS      CLEAR     28  13  53 N16       30.00R WCI  16
FORT MEADE*    CLEAR     25  12  58 N10G16    30.05R WCI  15

$$

MDZ012-015-019>023-280800-
MARYLAND EASTERN SHORE

CITY           SKY/WX    TMP DP  RH WIND       PRES   REMARKS
OCEAN CITY     CLEAR     27  12  53 N15G28    29.93R WCI  15
SALISBURY      CLEAR     30  11  45 NW18G25   29.95R WCI  18
BAY BRIDGE AP*   N/A     28  12  50 N18G28    30.01R WCI  16
CAMBRIDGE*     CLEAR     32  14  47 N15G21    29.97R WCI  22
EASTON*        CLEAR     28  13  54 N13G24    30.03R WCI  17

$$

MDZ017>025-280800-
SOUTHERN MARYLAND

CITY           SKY/WX    TMP DP  RH WIND       PRES   REMARKS
PATUXENT RIVER CLEAR     28  14  55 NW23G30   29.99R WCI  14
ST INIGOES     CLEAR     29  13  51 NW12G21   29.99R WCI  19
LEONARDTOWN*   CLEAR     28  14  54 NW9       30.01R WCI  20

$$

MDZ003>005-280800-
NORTH CENTRAL MARYLAND

CITY           SKY/WX    TMP DP  RH WIND       PRES   REMARKS
FREDERICK*     PTCLDY    23  10  58 NW8       30.08R WCI  14
HAGERSTOWN APT CLEAR     20   9  62 NW14      30.06R WCI   7
WESTMINSTER*   PTCLDY    19   9  63 NW8       29.99R WCI   9

$$

MDZ501>502-280800-
WESTERN MARYLAND

CITY           SKY/WX    TMP DP  RH WIND       PRES   REMARKS
OAKLAND*       CLOUDY    10 N/A N/A W3        29.98R FOG
CUMBERLAND*    PTCLDY    21  10  63 NW5       30.16R

$$

VAZ025>031-280800-
SHENANDOAH VALLEY

CITY           SKY/WX    TMP DP  RH WIND       PRES   REMARKS
WINCHESTER*    CLEAR     25  10  54 NW8G16    30.08R WCI  16
FRONT ROYAL*   FAIR      25  14  63 NW5       30.06R
LURAY*         FAIR      28  18  64 NW6       30.06R
NEW MARKET*    FAIR      22  14  69 CALM      30.07R
STAUNTON*      CLEAR     22  14  73 CALM      30.07R
WAYNESBORO*    FAIR      20  12  69 W5        30.02R

$$

WVZ021-048>050-054>055-280800-
EASTERN WEST VIRGINIA PANHANDLE

CITY           SKY/WX    TMP DP  RH WIND       PRES   REMARKS
MARTINSBURG    CLEAR     23  10  57 NW13G20   30.08R WCI  11
PETERSBURG*    CLEAR     19  14  81 CALM      30.11R

$$

VAZ036>039-050-280800-
CENTRAL FOOTHILLS

CITY           SKY/WX    TMP DP  RH WIND       PRES   REMARKS
CHARLOTTESVILL MOCLDY    29  13  51 NW9       30.03R WCI  20
CULPEPER*      CLEAR     28  12  50 N12G17    30.05R WCI  18
ORANGE*        MOCLDY    30  14  51 NW6       30.04R
GORDONSVILLE*  CLOUDY    28  17  64 CALM      30.02R
WARRENTON*     FAIR      28  18  67 NW12G21   30.04R WCI  17

$$

VAZ055>057-280800-
NORTH AND CENTRAL PIEDMONT

CITY           SKY/WX    TMP DP  RH WIND       PRES   REMARKS
FREDERICKSBRG* PTCLDY    29  15  55 NW12G21   30.04R WCI  20
STAFFORD*      PTCLDY    26  13  58 NW21G28   30.08R WCI  12

$$

NCZ024-NYZ072-PAZ021-071-VAZ022-071-280800-
OTHER REGIONAL OBSERVATIONS

CITY           SKY/WX    TMP DP  RH WIND       PRES   REMARKS
NEW YORK CITY  CLEAR     18   3  52 NW10G20   29.89R WCI   6
PHILADELPHIA   PTCLDY    20   6  55 NW13G22   29.97R WCI   7
PITTSBURGH     FLURRIES  15  10  80 NW6       30.15R
ROANOKE        FAIR      23  11  60 NW12      30.09R WCI  12
RICHMOND       MOCLDY    30  15  53 NW15G21   30.02R WCI  19
RALEIGH        PTCLDY    28  11  48 NW6       30.04R

$$

ANZ530>537-280800-
MARINE OBSERVATIONS

STATION/POSITION TIME  TEMP    WIND        PRES
                       AIR SEA DIR/SP/G
                 (UTC) (F)     (DEG/KT/KT) (MB)
THOMAS PT LIGHT  0700   28 36  340/ 19/ 22 1016.7R
BALT KEY BRIDGE  0700   27     320/ 18/ 23 1015.8R
COVE POINT       0700   28     350/ 27/ 31 1014.9R
LEWISETTA        0700   30 37  340/ 15/ 21 1015.6R
SOLOMONS ISLAND  0700      38                N/A
PINEY POINT      0700          350/ 22/ 25   N/A

$$




USA.gov is the U.S. government's official web portal to all federal, state and local government web resources and services.